Sparta, IL

10:33 AM CDT on March 24, 2017 (GMT -0500)
Sparta Community-Hunter

Weather History for KSAR - March, 2014

Change the Weather History Date:

Saturday, March 22, 2014

  Actual Average (KBLV) Record (KBLV)
Temperature  
Mean Temperature 43 °F -  
Max Temperature 51 °F 58 °F 79 °F (1966)
Min Temperature 35 °F 36 °F 17 °F (2002)
Degree Days  
Heating Degree Days 22    
Moisture  
Dew Point 31 °F    
Average Humidity 66    
Maximum Humidity 87    
Minimum Humidity 50    
Precipitation  
Precipitation 0.00 in - - ()
Sea Level Pressure  
Sea Level Pressure 30.18 in    
Wind  
Wind Speed 10 mph (North)    
Max Wind Speed 15 mph    
Max Gust Speed 25 mph    
Visibility 10 miles    
Events      
Averages and records for this station are not official NWS values.
T = Trace of Precipitation, MM = Missing Value Source: NWS Daily Summary

Daily Weather History Graph

Daily Weather History Graph

Search for Another Location

Airport or City:

Trip Planner

Search our weather history database for the weather conditions in past years. The results will help you decide how hot, cold, wet, or windy it might be!

Date:

Astronomy

Mar. 22, 2014 Rise Set
Actual Time 6:59 AM CDT 7:12 PM CDT
Civil Twilight 6:32 AM CDT 7:38 PM CDT
Nautical Twilight 6:02 AM CDT 8:09 PM CDT
Astronomical Twilight 5:30 AM CDT 8:41 PM CDT
Moon 12:27 AM CDT (3/22) 10:47 AM CDT (3/22)
Length of Visible Light 13h 06m
Length of Day
12h 13m
Waning Gibbous, 65% of the Moon is Illuminated
Mar 22
Waning Gibbous
Mar 23
Last Quarter
Mar 30
New
Apr 7
First Quarter
Apr 15
Full

Hourly Weather History & Observations

Time (CDT) Temp. Windchill Dew Point Humidity Pressure Visibility Wind Dir Wind Speed Gust Speed Precip Events Conditions
12:15 AM 51.8 °F - 35.6 °F 54% 29.98 in 10.0 mi North 9.2 mph - N/A   Clear
12:35 AM 51.8 °F - 35.6 °F 54% 29.98 in 10.0 mi North 6.9 mph - N/A   Clear
12:55 AM 51.8 °F - 33.8 °F 50% 29.99 in 10.0 mi NNW 6.9 mph - N/A   Clear
1:15 AM 51.8 °F - 33.8 °F 50% 30.00 in 10.0 mi NNW 9.2 mph 19.6 mph N/A   Clear
1:35 AM 50.0 °F - 33.8 °F 54% 30.01 in 10.0 mi NNW 10.4 mph - N/A   Clear
1:55 AM 50.0 °F - 33.8 °F 54% 30.02 in 10.0 mi North 11.5 mph 19.6 mph N/A   Clear
2:15 AM 48.2 °F - 35.6 °F 62% 30.02 in 10.0 mi North 15.0 mph 18.4 mph N/A   Clear
2:35 AM 46.4 °F 41.5 °F 35.6 °F 66% 30.03 in 10.0 mi North 10.4 mph 16.1 mph N/A   Clear
2:55 AM 46.4 °F 41.5 °F 33.8 °F 62% 30.03 in 10.0 mi NNW 10.4 mph 17.3 mph N/A   Clear
3:15 AM 46.4 °F 41.9 °F 33.8 °F 62% 30.04 in 10.0 mi North 9.2 mph - N/A   Clear
3:35 AM 44.6 °F 38.8 °F 33.8 °F 66% 30.04 in 10.0 mi NNW 11.5 mph 17.3 mph N/A   Clear
3:55 AM 44.6 °F 39.2 °F 32.0 °F 61% 30.04 in 10.0 mi NNW 10.4 mph - N/A   Clear
4:15 AM 42.8 °F 37.0 °F 32.0 °F 66% 30.05 in 10.0 mi NNW 10.4 mph 16.1 mph N/A   Clear
4:35 AM 42.8 °F 37.5 °F 32.0 °F 66% 30.06 in 10.0 mi North 9.2 mph - N/A   Clear
4:55 AM 41.0 °F 34.7 °F 33.8 °F 76% 30.08 in 10.0 mi North 10.4 mph - N/A   Clear
5:15 AM 41.0 °F 35.8 °F 33.8 °F 76% 30.09 in 10.0 mi North 8.1 mph 18.4 mph N/A   Clear
5:35 AM 39.2 °F 32.5 °F 33.8 °F 81% 30.11 in 10.0 mi North 10.4 mph - N/A   Mostly Cloudy
5:55 AM 39.2 °F 32.0 °F 33.8 °F 81% 30.12 in 10.0 mi North 11.5 mph 16.1 mph N/A   Overcast
6:15 AM 37.4 °F 30.8 °F 32.0 °F 81% 30.14 in 10.0 mi North 9.2 mph - N/A   Overcast
6:35 AM 37.4 °F 31.4 °F 32.0 °F 81% 30.15 in 10.0 mi NNW 8.1 mph - N/A   Overcast
6:55 AM 35.6 °F 28.6 °F 32.0 °F 87% 30.16 in 10.0 mi North 9.2 mph 18.4 mph N/A   Overcast
7:15 AM 35.6 °F 27.5 °F 30.2 °F 81% 30.17 in 10.0 mi North 11.5 mph 20.7 mph N/A   Overcast
7:35 AM 35.6 °F 28.0 °F 30.2 °F 81% 30.18 in 10.0 mi North 10.4 mph 19.6 mph N/A   Overcast
7:55 AM 35.6 °F 28.0 °F 30.2 °F 81% 30.20 in 10.0 mi North 10.4 mph 18.4 mph N/A   Overcast
8:15 AM 35.6 °F 29.2 °F 30.2 °F 81% 30.20 in 10.0 mi North 8.1 mph - N/A   Scattered Clouds
8:35 AM 37.4 °F 28.9 °F 30.2 °F 75% 30.20 in 10.0 mi North 13.8 mph 20.7 mph N/A   Scattered Clouds
8:55 AM 37.4 °F 28.9 °F 30.2 °F 75% 30.21 in 10.0 mi North 13.8 mph - N/A   Mostly Cloudy
9:15 AM 35.6 °F 27.1 °F 28.4 °F 75% 30.22 in 10.0 mi North 12.7 mph 20.7 mph N/A   Mostly Cloudy
9:35 AM 37.4 °F 28.9 °F 30.2 °F 75% 30.23 in 10.0 mi NNE 13.8 mph - N/A   Overcast
9:55 AM 37.4 °F 28.5 °F 30.2 °F 75% 30.24 in 10.0 mi North 15.0 mph 18.4 mph N/A   Overcast
10:15 AM 37.4 °F 29.3 °F 28.4 °F 70% 30.25 in 10.0 mi North 12.7 mph 19.6 mph N/A   Overcast
10:35 AM 39.2 °F 32.0 °F 30.2 °F 70% 30.26 in 10.0 mi North 11.5 mph - N/A   Overcast
10:55 AM 41.0 °F 35.2 °F 30.2 °F 65% 30.26 in 10.0 mi North 9.2 mph - N/A   Overcast
11:15 AM 39.2 °F 32.5 °F 30.2 °F 70% 30.26 in 10.0 mi North 10.4 mph - N/A   Overcast
11:35 AM 41.0 °F 34.3 °F 30.2 °F 65% 30.26 in 10.0 mi North 11.5 mph - N/A   Overcast
11:55 AM 39.2 °F 33.0 °F 28.4 °F 65% 30.26 in 10.0 mi NNW 9.2 mph - N/A   Overcast
12:15 PM 41.0 °F 34.3 °F 30.2 °F 65% 30.25 in 10.0 mi NNW 11.5 mph - N/A   Overcast
12:55 PM 41.0 °F 34.3 °F 30.2 °F 65% 30.25 in 10.0 mi North 11.5 mph 19.6 mph N/A   Mostly Cloudy
1:15 PM 42.8 °F 37.5 °F 30.2 °F 61% 30.24 in 10.0 mi North 9.2 mph 17.3 mph N/A   Mostly Cloudy
1:35 PM 42.8 °F 37.0 °F 30.2 °F 61% 30.24 in 10.0 mi North 10.4 mph - N/A   Mostly Cloudy
1:55 PM 42.8 °F 37.0 °F 30.2 °F 61% 30.23 in 10.0 mi North 10.4 mph - N/A   Scattered Clouds
2:15 PM 42.8 °F 37.0 °F 30.2 °F 61% 30.22 in 10.0 mi North 10.4 mph 16.1 mph N/A   Scattered Clouds
2:35 PM 42.8 °F 36.6 °F 30.2 °F 61% 30.21 in 10.0 mi NNE 11.5 mph 18.4 mph N/A   Clear
2:55 PM 42.8 °F 37.0 °F 30.2 °F 61% 30.21 in 10.0 mi NW 10.4 mph 16.1 mph N/A   Clear
3:15 PM 44.6 °F 38.8 °F 30.2 °F 57% 30.21 in 10.0 mi North 11.5 mph 18.4 mph N/A   Scattered Clouds
3:35 PM 44.6 °F 38.8 °F 30.2 °F 57% 30.21 in 10.0 mi North 11.5 mph - N/A   Clear
3:55 PM 44.6 °F 39.2 °F 30.2 °F 57% 30.21 in 10.0 mi North 10.4 mph - N/A   Clear
4:15 PM 44.6 °F 39.2 °F 30.2 °F 57% 30.21 in 10.0 mi North 10.4 mph 16.1 mph N/A   Clear
4:35 PM 44.6 °F 38.4 °F 30.2 °F 57% 30.21 in 10.0 mi North 12.7 mph 25.3 mph N/A   Clear
4:55 PM 44.6 °F 39.2 °F 30.2 °F 57% 30.21 in 10.0 mi North 10.4 mph - N/A   Clear
5:15 PM 44.6 °F 40.2 °F 30.2 °F 57% 30.21 in 10.0 mi NNW 8.1 mph - N/A   Clear
5:35 PM 44.6 °F 38.4 °F 30.2 °F 57% 30.21 in 10.0 mi North 12.7 mph 17.3 mph N/A   Clear
5:55 PM 44.6 °F 39.7 °F 30.2 °F 57% 30.21 in 10.0 mi North 9.2 mph - N/A   Clear
6:15 PM 42.8 °F 36.2 °F 28.4 °F 57% 30.21 in 10.0 mi NNE 12.7 mph 16.1 mph N/A   Clear
6:35 PM 42.8 °F 37.0 °F 28.4 °F 57% 30.21 in 10.0 mi North 10.4 mph - N/A   Clear
6:55 PM 41.0 °F 36.4 °F 28.4 °F 61% 30.22 in 10.0 mi North 6.9 mph - N/A   Clear
7:15 PM 41.0 °F 36.4 °F 28.4 °F 61% 30.23 in 10.0 mi North 6.9 mph - N/A   Clear
7:35 PM 41.0 °F 35.8 °F 28.4 °F 61% 30.24 in 10.0 mi North 8.1 mph - N/A   Clear
7:55 PM 41.0 °F 35.8 °F 28.4 °F 61% 30.24 in 10.0 mi NNE 8.1 mph - N/A   Clear
8:15 PM 39.2 °F 33.6 °F 28.4 °F 65% 30.25 in 10.0 mi North 8.1 mph - N/A   Clear
8:35 PM 37.4 °F 30.8 °F 28.4 °F 70% 30.25 in 10.0 mi North 9.2 mph - N/A   Clear
8:55 PM 37.4 °F 32.1 °F 28.4 °F 70% 30.26 in 10.0 mi North 6.9 mph - N/A   Clear
9:15 PM 37.4 °F 30.3 °F 28.4 °F 70% 30.26 in 10.0 mi North 10.4 mph - N/A   Clear
9:35 PM 37.4 °F 29.3 °F 28.4 °F 70% 30.26 in 10.0 mi North 12.7 mph 17.3 mph N/A   Clear
9:55 PM 37.4 °F 29.8 °F 26.6 °F 65% 30.28 in 10.0 mi North 11.5 mph 17.3 mph N/A   Mostly Cloudy
10:15 PM 37.4 °F 29.8 °F 26.6 °F 65% 30.28 in 10.0 mi North 11.5 mph 18.4 mph N/A   Overcast
10:35 PM 37.4 °F 29.8 °F 26.6 °F 65% 30.28 in 10.0 mi North 11.5 mph 17.3 mph N/A   Mostly Cloudy
10:55 PM 35.6 °F 28.6 °F 28.4 °F 75% 30.28 in 10.0 mi North 9.2 mph - N/A   Mostly Cloudy
11:15 PM 35.6 °F 28.6 °F 28.4 °F 75% 30.29 in 10.0 mi North 9.2 mph - N/A   Overcast
11:35 PM 35.6 °F 28.6 °F 28.4 °F 75% 30.30 in 10.0 mi North 9.2 mph - N/A   Mostly Cloudy
11:55 PM 35.6 °F 29.2 °F 28.4 °F 75% 30.30 in 10.0 mi North 8.1 mph - N/A   Overcast